This demonstration page uses our WeatherBlox Daily Observations layout. Learn more.

Left ArrowRight Arrow

38.88101, -77.10428

Hourly Observations for April 2, 2021

Temp ( °F °C ) Dew Point ( °F °C ) Humidity (%) Winds ( mph kmh ) Pressure ( in mb ) Visibility ( mi km ) Precip ( " mm )
12:52 am 00:52 Mostly Cloudy 35 1.7 18 -7.8 50 50 NW 15 24 30.21 1023 10 16 0.00 0.00
1:52 am 01:52 Cloudy 35 1.7 18 -7.8 50 50 NW 17 28 30.21 1023 10 16 0.00 0.00
2:52 am 02:52 Mostly Cloudy 34 1.1 19 -7.2 54 54 NNW 21 33 30.21 1023 10 16 0.00 0.00
3:52 am 03:52 Cloudy 33 0.6 17 -8.3 52 52 NW 16 26 30.22 1023 10 16 0.00 0.00
4:52 am 04:52 Mostly Clear 32 0 16 -8.9 52 52 NW 14 22 30.24 1024 10 16 0.00 0.00
5:52 am 05:52 Mostly Clear 31 -0.6 16 -8.9 54 54 WNW 15 24 30.26 1025 10 16 0.00 0.00
6:52 am 06:52 Mostly Sunny 31 -0.6 15 -9.4 52 52 NW 23 37 30.30 1026 10 16 0.00 0.00
7:52 am 07:52 Mostly Sunny 32 0 14 -10 47 47 NW 18 30 30.33 1027 10 16 0.00 0.00
8:52 am 08:52 Mostly Sunny 34 1.1 15 -9.4 46 46 NW 18 30 30.34 1027 10 16 0.00 0.00
9:52 am 09:52 Partly Cloudy 36 2.2 14 -10 40 40 NW 24 39 30.35 1028 10 16 0.00 0.00
10:52 am 10:52 Partly Cloudy 37 2.8 13 -10.6 37 37 NNW 21 33 30.34 1028 10 16 0.00 0.00
11:52 am 11:52 Partly Cloudy 40 4.4 14 -10 35 35 NNW 24 39 30.33 1027 10 16 0.00 0.00
12:52 pm 12:52 Partly Cloudy 43 6.1 15 -9.4 32 32 NNW 22 35 30.31 1026 10 16 0.00 0.00
1:52 pm 13:52 Partly Cloudy 43 6.1 12 -11.1 28 28 NW 17 28 30.30 1026 10 16 0.00 0.00
2:52 pm 14:52 Partly Cloudy 45 7.2 13 -10.6 27 27 NW 17 28 30.28 1025 10 16 0.00 0.00
3:52 pm 15:52 Partly Cloudy 45 7.2 13 -10.6 27 27 NW 22 35 30.27 1025 10 16 0.00 0.00
4:52 pm 16:52 Partly Cloudy 46 7.8 13 -10.6 26 26 NNW 23 37 30.27 1025 10 16 0.00 0.00
5:52 pm 17:52 Partly Cloudy 45 7.2 12 -11.1 26 26 NW 18 30 30.27 1025 10 16 0.00 0.00
6:52 pm 18:52 Partly Cloudy 44 6.7 10 -12.2 25 25 NW 22 35 30.29 1026 10 16 0.00 0.00
7:52 pm 19:52 Clear 43 6.1 10 -12.2 26 26 NW 14 22 30.30 1026 10 16 0.00 0.00
8:52 pm 20:52 Clear 42 5.6 12 -11.1 29 29 NW 10 17 30.33 1027 10 16 0.00 0.00
9:52 pm 21:52 Clear 41 5 12 -11.1 30 30 NW 10 17 30.35 1028 10 16 0.00 0.00
10:52 pm 22:52 Clear 40 4.4 12 -11.1 32 32 NW 12 19 30.37 1028 10 16 0.00 0.00
11:52 pm 23:52 Mostly Clear 39 3.9 12 -11.1 33 33 NW 9 15 30.38 1029 10 16 0.00 0.00

Powered by AerisWeather